TimeEST,TemperatureF,Dew PointF,Humidity,Sea Level PressureIn,VisibilityMPH,Wind Direction,Wind SpeedMPH,Gust SpeedMPH,PrecipitationIn,Events,Conditions,WindDirDegrees,DateUTC
12:53 AM,18.0,10.0,71,30.02,7.0,West,16.1,28.8,0.00,Snow,Light Snow,260,2013-02-20 05:53:00
1:53 AM,18.0,10.0,71,30.03,9.0,West,17.3,26.5,0.00,,Overcast,280,2013-02-20 06:53:00
2:53 AM,19.0,10.0,68,30.03,10.0,West,17.3,26.5,N/A,,Overcast,270,2013-02-20 07:53:00
3:53 AM,19.0,10.0,68,30.04,10.0,West,20.7,25.3,N/A,,Overcast,270,2013-02-20 08:53:00
4:53 AM,18.0,10.0,71,30.06,10.0,West,16.1,24.2,0.00,,Overcast,280,2013-02-20 09:53:00
5:53 AM,19.0,10.0,68,30.07,10.0,West,18.4,26.5,0.00,Snow,Light Snow,270,2013-02-20 10:53:00
6:53 AM,18.0,12.0,78,30.09,2.5,West,15.0,23.0,0.00,Snow,Light Snow,280,2013-02-20 11:53:00
7:07 AM,17.6,12.2,79,30.06,1.8,West,16.1,23.0,0.00,Snow,Light Snow,270,2013-02-20 12:07:00
7:28 AM,17.6,12.2,79,30.06,2.5,West,16.1,23.0,0.00,Snow,Light Snow,280,2013-02-20 12:28:00
7:39 AM,17.6,12.2,79,30.06,1.5,West,13.8,-,0.00,Snow,Light Snow,270,2013-02-20 12:39:00
7:45 AM,17.6,12.2,79,30.07,3.0,West,13.8,-,0.00,Snow,Light Snow,270,2013-02-20 12:45:00
7:53 AM,18.0,12.9,81,30.11,3.0,West,12.7,-,0.00,Snow,Light Snow,270,2013-02-20 12:53:00
8:01 AM,17.6,12.2,79,30.07,2.5,West,15.0,21.9,0.00,Snow,Light Snow,270,2013-02-20 13:01:00
8:09 AM,17.6,12.2,79,30.07,5.0,West,15.0,-,0.00,Snow,Light Snow,270,2013-02-20 13:09:00
8:21 AM,17.6,12.2,79,30.07,3.0,West,15.0,-,0.00,Snow,Light Snow,270,2013-02-20 13:21:00
8:37 AM,17.6,14.0,86,30.09,0.2,WNW,17.3,21.9,0.00,Fog-Snow,Snow,300,2013-02-20 13:37:00
8:53 AM,18.0,12.9,81,30.12,1.2,WNW,15.0,24.2,0.00,Snow,Light Snow,300,2013-02-20 13:53:00
8:58 AM,19.4,12.2,74,30.08,3.0,NW,17.3,24.2,0.00,Snow,Light Snow,310,2013-02-20 13:58:00
9:09 AM,19.4,10.4,68,30.09,2.5,NW,24.2,33.4,0.00,Snow,Light Snow,310,2013-02-20 14:09:00
9:21 AM,19.4,12.2,74,30.09,1.0,NW,20.7,25.3,0.00,Snow,Light Snow,310,2013-02-20 14:21:00
9:28 AM,19.4,12.2,74,30.09,0.8,WNW,16.1,-,0.00,Snow,Light Snow,300,2013-02-20 14:28:00
9:35 AM,19.4,12.2,74,30.09,2.0,West,15.0,-,0.00,Snow,Light Snow,280,2013-02-20 14:35:00
9:44 AM,19.4,10.4,68,30.09,4.0,WNW,18.4,23.0,0.00,Snow,Light Snow,300,2013-02-20 14:44:00
9:53 AM,19.0,10.0,68,30.14,9.0,WNW,18.4,24.2,0.00,,Overcast,300,2013-02-20 14:53:00
10:14 AM,19.4,10.4,68,30.10,10.0,WNW,13.8,-,N/A,,Overcast,290,2013-02-20 15:14:00
10:53 AM,19.9,9.0,62,30.16,10.0,WNW,18.4,28.8,0.00,,Overcast,300,2013-02-20 15:53:00
11:53 AM,21.0,8.1,57,30.17,10.0,WNW,19.6,28.8,0.00,,Mostly Cloudy,300,2013-02-20 16:53:00
12:53 PM,21.0,10.9,65,30.18,5.0,WNW,18.4,-,0.00,Snow,Light Snow,290,2013-02-20 17:53:00
1:53 PM,21.9,10.0,60,30.18,10.0,WNW,13.8,-,0.00,,Overcast,300,2013-02-20 18:53:00
3:53 PM,21.9,10.0,60,30.22,10.0,NW,15.0,-,N/A,,Overcast,310,2013-02-20 20:53:00
4:53 PM,21.9,10.0,60,30.25,10.0,WNW,15.0,-,N/A,,Overcast,300,2013-02-20 21:53:00
5:53 PM,21.9,12.0,66,30.24,9.0,WNW,10.4,-,0.00,,Overcast,290,2013-02-20 22:53:00
6:53 PM,21.9,10.9,63,30.24,10.0,West,9.2,-,N/A,,Overcast,280,2013-02-20 23:53:00
7:48 PM,21.2,12.2,68,30.22,8.0,West,8.1,-,0.00,Snow,Light Snow,280,2013-02-21 00:48:00
7:53 PM,21.9,12.9,68,30.26,7.0,West,9.2,-,0.00,Snow,Light Snow,280,2013-02-21 00:53:00
8:53 PM,21.0,15.1,78,30.25,9.0,West,5.8,-,0.00,,Overcast,280,2013-02-21 01:53:00
9:39 PM,21.2,15.8,80,30.22,4.0,West,9.2,-,0.00,Snow,Light Snow,280,2013-02-21 02:39:00
9:53 PM,21.0,15.1,78,30.26,3.0,WNW,9.2,-,0.00,Snow,Light Snow,290,2013-02-21 02:53:00
10:53 PM,21.0,14.0,74,30.25,3.0,West,5.8,-,0.00,Snow,Light Snow,270,2013-02-21 03:53:00
11:07 PM,21.2,15.8,80,30.21,2.0,West,6.9,-,0.00,Snow,Light Snow,280,2013-02-21 04:07:00
11:20 PM,21.2,15.8,80,30.21,3.0,West,6.9,-,0.00,Snow,Light Snow,280,2013-02-21 04:20:00
11:31 PM,21.2,15.8,80,30.22,2.5,West,8.1,-,0.00,Snow,Light Snow,280,2013-02-21 04:31:00
11:46 PM,19.4,15.8,86,30.21,4.0,West,8.1,-,0.00,Snow,Light Snow,270,2013-02-21 04:46:00
11:53 PM,21.0,15.1,78,30.25,4.0,West,9.2,-,0.00,Snow,Light Snow,280,2013-02-21 04:53:00